Regional Weather Roundup
Issued by NWS

Home | Current Version | Previous Version | Text Only | Print | Product List | Glossary On
Versions: 1 2 3 4 5 6 7 8 9 10 11 12 13 14 15 16 17 18 19 20 21 22 23 24 25 26 27 28 29 30 31 32 33 34 35 36 37 38 39 40 41 42 43 44 45 46 47 48 49 50
000
ASCA42 TJSJ 040110
RWRPR
PUERTO RICO/U.S. VIRGIN ISLANDS HOURLY WEATHER ROUNDUP
NATIONAL WEATHER SERVICE SAN JUAN PR
900 PM AST MON AUG 03 2015

PRZ001-004-040200-
PUERTO RICO

CITY           SKY/WX    TMP DP  RH WIND       PRES   REMARKS
SAN JUAN LMM   PTCLDY    82  79  89 E14       30.04R HX  93
PONCE          PTCLDY    84  70  61 E6        29.96S
AGUADILLA      PTCLDY    81  75  83 E13G20    30.04R
$$

PRZ006-007-040200-
U.S. VIRGIN ISLANDS

CITY           SKY/WX    TMP DP  RH WIND       PRES   REMARKS
CHARLOTTE AMA  PTCLDY    84  73  70 E16       30.03R HX  91
CHRISTIANSTED  CLEAR     82  73  74 E12       30.04R
$$

HOURLY WEATHER ROUNDUP FOR THE NEWS MEDIA

CITY           SKY/WX    TMP DP  RH WIND       PRES   REMARKS
ORLANDO        CLOUDY    80  74  81 SW7       29.96R
NEW YORK       MOCLDY    79  72  79 S16       29.80S
NEWARK         MOCLDY    86  58  38 SW13G21   29.78R
CHICAGO        PTCLDY    76  50  40 NW10      29.86S
HARTFORD       CLEAR     75  70  84 SW10      29.82R
BOSTON         MOCLDY    77  63  61 S13       29.79R
DALLAS         PTCLDY    95  59  30 SE16      29.86R HX  94
PHILADELPHIA   PTCLDY    85  65  51 S9        29.81R
LOS ANGELES    MOSUNNY   74  64  71 W14       29.87F
WASHINGTON DC  PTCLDY    80  64  58 S6        29.82S


USA.gov is the U.S. government's official web portal to all federal, state and local government web resources and services.